This is the latest recevied weather packets stored in our database for station/object N6RDS-8. If no packets are shown the sender has not sent any weather packets the latest 10 day(s).
| Time | Temp. | Humidity | Pressure | Rain* | Wind** | Luminosity | Snow |
|---|---|---|---|---|---|---|---|
| 1777944985 | 20° C | 35% | 1016.9 hPa | 0 mm | - | 20 W/m² | - |
| 1777944682 | 20.56° C | 35% | 1016.8 hPa | 0 mm | - | 23 W/m² | - |
| 1777944380 | 20.56° C | 34% | 1017.1 hPa | 0 mm | - | 26 W/m² | - |
| 1777944077 | 21.11° C | 33% | 1016.9 hPa | 0 mm | - | 29 W/m² | - |
| 1777943772 | 21.11° C | 33% | 1016.8 hPa | 0 mm | - | 38 W/m² | - |
| 1777943470 | 21.67° C | 32% | 1016.8 hPa | 0 mm | - | 54 W/m² | - |
| 1777943165 | 22.22° C | 32% | 1017 hPa | 0 mm | - | 67 W/m² | - |
| 1777942862 | 22.22° C | 30% | 1016.9 hPa | 0 mm | - | 92 W/m² | - |
| 1777942558 | 22.78° C | 29% | 1016.9 hPa | 0 mm | - | 104 W/m² | - |
| 1777942256 | 22.78° C | 29% | 1016.8 hPa | 0 mm | - | 140 W/m² | - |
| 1777941953 | 22.78° C | 29% | 1016.9 hPa | 0 mm | - | 168 W/m² | - |
| 1777941650 | 22.78° C | 29% | 1017 hPa | 0 mm | - | 134 W/m² | - |
| 1777941347 | 22.78° C | 29% | 1017.2 hPa | 0 mm | - | 103 W/m² | - |
| 1777941044 | 23.33° C | 28% | 1016.9 hPa | 0 mm | - | 129 W/m² | - |
| 1777940743 | 23.33° C | 27% | 1016.9 hPa | 0 mm | - | 152 W/m² | - |
| 1777940444 | 23.33° C | 28% | 1016.7 hPa | 0 mm | - | 147 W/m² | - |
| 1777940140 | 23.89° C | 28% | 1016.6 hPa | 0 mm | - | 152 W/m² | - |
| 1777939838 | 23.89° C | 28% | 1016.9 hPa | 0 mm | - | 173 W/m² | - |
| 1777939535 | 24.44° C | 27% | 1016.6 hPa | 0 mm | - | 157 W/m² | - |
| 1777939232 | 25.56° C | 26% | 1016.6 hPa | 0 mm | - | 202 W/m² | - |
| 1777938929 | 25° C | 29% | 1016.4 hPa | 0 mm | - | 302 W/m² | - |
| 1777938626 | 24.44° C | 29% | 1016.4 hPa | 0 mm | - | 149 W/m² | - |
| 1777938323 | 24.44° C | 30% | 1016.5 hPa | 0 mm | - | 109 W/m² | - |
| 1777938020 | 24.44° C | 29% | 1016.6 hPa | 0 mm | - | 149 W/m² | - |
| 1777937715 | 24.44° C | 29% | 1016.7 hPa | 0 mm | - | 134 W/m² | - |
* Rain latest hour (hover to see other rain measurements)
** Current wind speed in m/s (hover to see current wind gust speed)